| time (UTC) | temp F | wind direction | speed knots | gust knots | rain 1hr in | rain 24hr in | rain mn in | humidity % | barometer mb |
| 20260510224338 | 87 | 216 | 0.9 | 1.7 | 0.00 | 0.00 | 0.00 | 59 | 1011.6 |
| 20260510223835 | 86 | 232 | 0.9 | 1.7 | 0.00 | 0.00 | 0.00 | 61 | 1011.4 |
| 20260510223332 | 86 | 205 | 0.9 | 1.7 | 0.00 | 0.00 | 0.00 | 61 | 1011.4 |
| 20260510222830 | 86 | 234 | 0.0 | 0.9 | 0.00 | 0.00 | 0.00 | 61 | 1011.4 |
| 20260510222326 | 87 | 264 | 2.6 | 4.3 | 0.00 | 0.00 | 0.00 | 60 | 1011.5 |
| 20260510221821 | 87 | 233 | 0.9 | 0.9 | 0.00 | 0.00 | 0.00 | 61 | 1011.4 |
| 20260510221318 | 88 | 240 | 1.7 | 1.7 | 0.00 | 0.00 | 0.00 | 58 | 1011.5 |
| 20260510220814 | 89 | 221 | 1.7 | 2.6 | 0.00 | 0.00 | 0.00 | 59 | 1011.5 |
| 20260510220310 | 89 | 294 | 3.5 | 4.3 | 0.00 | 0.00 | 0.00 | 57 | 1011.6 |
| 20260510215807 | 89 | 236 | 2.6 | 2.6 | 0.00 | 0.00 | 0.00 | 58 | 1011.6 |
| 20260510215306 | 89 | 185 | 1.7 | 1.7 | 0.00 | 0.00 | 0.00 | 59 | 1011.7 |
| 20260510214802 | 89 | 210 | 0.0 | 0.9 | 0.00 | 0.00 | 0.00 | 58 | 1011.5 |
| 20260510214259 | 89 | 221 | 1.7 | 1.7 | 0.00 | 0.00 | 0.00 | 57 | 1011.7 |
| 20260510213755 | 89 | 141 | 2.6 | 2.6 | 0.00 | 0.00 | 0.00 | 56 | 1011.5 |
| 20260510213252 | 89 | 102 | 1.7 | 2.6 | 0.00 | 0.00 | 0.00 | 56 | 1011.6 |
| 20260510212748 | 89 | 220 | 1.7 | 2.6 | 0.00 | 0.00 | 0.00 | 56 | 1011.5 |
| 20260510212246 | 89 | 172 | 0.9 | 1.7 | 0.00 | 0.00 | 0.00 | 57 | 1011.6 |
| 20260510211742 | 89 | 287 | 1.7 | 1.7 | 0.00 | 0.00 | 0.00 | 58 | 1011.8 |
| 20260510211238 | 89 | 245 | 1.7 | 2.6 | 0.00 | 0.00 | 0.00 | 56 | 1011.9 |
| 20260510210734 | 89 | 234 | 2.6 | 2.6 | 0.00 | 0.00 | 0.00 | 55 | 1011.9 |
| 20260510210229 | 90 | 212 | 1.7 | 2.6 | 0.00 | 0.00 | 0.00 | 55 | 1011.7 |
| 20260510205729 | 88 | 333 | 3.5 | 5.2 | 0.00 | 0.00 | 0.00 | 58 | 1011.8 |
| 20260510205224 | 88 | 8 | 2.6 | 4.3 | 0.00 | 0.00 | 0.00 | 57 | 1012.0 |
| 20260510204721 | 88 | 316 | 4.3 | 5.2 | 0.00 | 0.00 | 0.00 | 58 | 1012.1 |
| 20260510204217 | 87 | 332 | 2.6 | 6.1 | 0.00 | 0.00 | 0.00 | 60 | 1012.2 |
| 20260510203714 | 88 | 242 | 2.6 | 4.3 | 0.00 | 0.00 | 0.00 | 60 | 1012.1 |
| 20260510203212 | 89 | 255 | 0.9 | 1.7 | 0.00 | 0.00 | 0.00 | 59 | 1012.2 |
| 20260510202706 | 89 | 177 | 0.9 | 1.7 | 0.00 | 0.00 | 0.00 | 57 | 1012.4 |
| 20260510202201 | 89 | 183 | 1.7 | 1.7 | 0.00 | 0.00 | 0.00 | 58 | 1012.0 |
| 20260510201659 | 89 | 234 | 1.7 | 1.7 | 0.00 | 0.00 | 0.00 | 57 | 1012.1 |
| 20260510201155 | 90 | 212 | 0.9 | 1.7 | 0.00 | 0.00 | 0.00 | 56 | 1012.0 |
| 20260510200651 | 90 | 160 | 2.6 | 2.6 | 0.00 | 0.00 | 0.00 | 56 | 1012.4 |
| 20260510200150 | 89 | 275 | 0.9 | 1.7 | 0.00 | 0.00 | 0.00 | 56 | 1012.4 |
| 20260510195647 | 89 | 268 | 2.6 | 5.2 | 0.00 | 0.00 | 0.00 | 56 | 1012.5 |
| 20260510195143 | 88 | 268 | 2.6 | 2.6 | 0.00 | 0.00 | 0.00 | 60 | 1012.4 |
| 20260510194642 | 89 | 1 | 1.7 | 5.2 | 0.00 | 0.00 | 0.00 | 58 | 1012.4 |
| 20260510194139 | 88 | 195 | 2.6 | 2.6 | 0.00 | 0.00 | 0.00 | 58 | 1012.4 |
| 20260510193634 | 88 | 230 | 2.6 | 4.3 | 0.00 | 0.00 | 0.00 | 59 | 1012.2 |
| 20260510193130 | 88 | 245 | 0.9 | 1.7 | 0.00 | 0.00 | 0.00 | 60 | 1012.3 |
| 20260510192625 | 89 | 219 | 0.9 | 0.9 | 0.00 | 0.00 | 0.00 | 58 | 1012.6 |
| 20260510192121 | 88 | 208 | 1.7 | 1.7 | 0.00 | 0.00 | 0.00 | 59 | 1012.6 |
| 20260510191618 | 88 | 172 | 1.7 | 1.7 | 0.00 | 0.00 | 0.00 | 59 | 1012.7 |
| 20260510191114 | 88 | 223 | 1.7 | 1.7 | 0.00 | 0.00 | 0.00 | 58 | 1012.9 |
| 20260510190612 | 88 | 217 | 2.6 | 2.6 | 0.00 | 0.00 | 0.00 | 58 | 1012.8 |
| 20260510190109 | 91 | 262 | 2.6 | 5.2 | 0.00 | 0.00 | 0.00 | 55 | 1013.0 |
| 20260510185605 | 90 | 202 | 1.7 | 2.6 | 0.00 | 0.00 | 0.00 | 58 | 1012.8 |
| 20260510185103 | 90 | 216 | 0.9 | 0.9 | 0.00 | 0.00 | 0.00 | 59 | 1012.9 |
| 20260510184600 | 88 | 237 | 1.7 | 1.7 | 0.00 | 0.00 | 0.00 | 62 | 1013.0 |
| 20260510184055 | 88 | 163 | 2.6 | 2.6 | 0.00 | 0.00 | 0.00 | 60 | 1012.9 |
| 20260510183551 | 87 | 331 | 2.6 | 2.6 | 0.00 | 0.00 | 0.00 | 61 | 1013.1 |
| 20260510183046 | 86 | 241 | 3.5 | 5.2 | 0.00 | 0.00 | 0.00 | 63 | 1013.1 |
| 20260510182543 | 87 | 251 | 3.5 | 5.2 | 0.00 | 0.00 | 0.00 | 63 | 1013.2 |
| 20260510182033 | 86 | 233 | 1.7 | 2.6 | 0.00 | 0.00 | 0.00 | 66 | 1013.4 |
| 20260510181531 | 87 | 328 | 2.6 | 4.3 | 0.00 | 0.00 | 0.00 | 64 | 1013.2 |
| 20260510181027 | 86 | 237 | 0.9 | 1.7 | 0.00 | 0.00 | 0.00 | 66 | 1013.4 |
| 20260510180524 | 85 | 246 | 1.7 | 2.6 | 0.00 | 0.00 | 0.00 | 67 | 1013.6 |
| 20260510180021 | 86 | 206 | 2.6 | 2.6 | 0.00 | 0.00 | 0.00 | 66 | 1013.8 |
| 20260510175516 | 85 | 209 | 0.0 | 0.9 | 0.00 | 0.00 | 0.00 | 69 | 1013.7 |
| 20260510175013 | 84 | 356 | 2.6 | 4.3 | 0.00 | 0.00 | 0.00 | 68 | 1014.1 |
| 20260510174511 | 84 | 212 | 1.7 | 2.6 | 0.00 | 0.00 | 0.00 | 67 | 1014.1 |
| 20260510174007 | 86 | 229 | 0.9 | 1.7 | 0.00 | 0.00 | 0.00 | 66 | 1014.0 |
| 20260510173503 | 87 | 230 | 0.0 | 0.0 | 0.00 | 0.00 | 0.00 | 67 | 1014.0 |
| 20260510173000 | 85 | 223 | 0.0 | 0.9 | 0.00 | 0.00 | 0.00 | 68 | 1014.1 |
| 20260510172455 | 86 | 223 | 0.9 | 1.7 | 0.00 | 0.00 | 0.00 | 67 | 1014.2 |
| 20260510171952 | 85 | 194 | 0.0 | 0.9 | 0.00 | 0.00 | 0.00 | 68 | 1014.0 |
| 20260510171449 | 85 | 225 | 1.7 | 2.6 | 0.00 | 0.00 | 0.00 | 67 | 1014.4 |
| 20260510170945 | 85 | 220 | 0.0 | 0.9 | 0.00 | 0.00 | 0.00 | 68 | 1014.4 |
| 20260510170442 | 84 | 233 | 1.7 | 1.7 | 0.00 | 0.00 | 0.00 | 68 | 1014.3 |
| 20260510165938 | 84 | 215 | 1.7 | 1.7 | 0.00 | 0.00 | 0.00 | 67 | 1014.3 |
| 20260510165434 | 84 | 212 | 0.9 | 0.9 | 0.00 | 0.00 | 0.00 | 68 | 1014.2 |
| 20260510164931 | 83 | 218 | 0.0 | 0.9 | 0.00 | 0.00 | 0.00 | 71 | 1014.3 |
| 20260510164428 | 84 | 226 | 2.6 | 4.3 | 0.00 | 0.00 | 0.00 | 68 | 1014.3 |
| 20260510163923 | 82 | 210 | 0.9 | 0.9 | 0.00 | 0.00 | 0.00 | 71 | 1014.0 |
| 20260510163419 | 83 | 226 | 1.7 | 2.6 | 0.00 | 0.00 | 0.00 | 71 | 1014.5 |
| 20260510162913 | 82 | 196 | 2.6 | 2.6 | 0.00 | 0.00 | 0.00 | 72 | 1014.3 |
| 20260510162411 | 82 | 209 | 2.6 | 5.2 | 0.00 | 0.00 | 0.00 | 74 | 1014.2 |
| 20260510161907 | 82 | 233 | 2.6 | 5.2 | 0.00 | 0.00 | 0.00 | 73 | 1014.1 |
| 20260510161403 | 81 | 211 | 2.6 | 4.3 | 0.00 | 0.00 | 0.00 | 74 | 1014.2 |
| 20260510160900 | 81 | 198 | 1.7 | 1.7 | 0.00 | 0.00 | 0.00 | 76 | 1014.2 |
| 20260510160357 | 81 | 189 | 3.5 | 7.0 | 0.00 | 0.00 | 0.00 | 74 | 1014.1 |
| 20260510155856 | 84 | 271 | 1.7 | 2.6 | 0.00 | 0.00 | 0.00 | 73 | 1014.1 |
| 20260510155353 | 82 | 224 | 1.7 | 1.7 | 0.00 | 0.00 | 0.00 | 74 | 1014.0 |
| 20260510154849 | 82 | 229 | 2.6 | 2.6 | 0.00 | 0.00 | 0.00 | 74 | 1013.6 |
| 20260510154346 | 82 | 176 | 2.6 | 6.1 | 0.00 | 0.00 | 0.00 | 74 | 1013.5 |
| 20260510153839 | 83 | 231 | 1.7 | 2.6 | 0.00 | 0.00 | 0.00 | 72 | 1013.7 |
| 20260510153336 | 84 | 235 | 1.7 | 1.7 | 0.00 | 0.00 | 0.00 | 71 | 1013.4 |
| 20260510152832 | 84 | 246 | 2.6 | 2.6 | 0.00 | 0.00 | 0.00 | 69 | 1013.5 |
| 20260510152330 | 84 | 199 | 1.7 | 1.7 | 0.00 | 0.00 | 0.00 | 69 | 1013.3 |
| 20260510151826 | 83 | 219 | 1.7 | 2.6 | 0.00 | 0.00 | 0.00 | 70 | 1013.5 |
| 20260510151324 | 82 | 232 | 0.9 | 0.9 | 0.00 | 0.00 | 0.00 | 70 | 1013.4 |
| 20260510150820 | 82 | 231 | 0.0 | 0.9 | 0.00 | 0.00 | 0.00 | 73 | 1013.4 |
| 20260510150315 | 82 | 47 | 1.7 | 2.6 | 0.00 | 0.00 | 0.00 | 73 | 1013.2 |
| 20260510145812 | 81 | 217 | 0.9 | 0.9 | 0.00 | 0.00 | 0.00 | 72 | 1013.2 |
| 20260510145308 | 80 | 230 | 0.9 | 0.9 | 0.00 | 0.00 | 0.00 | 75 | 1013.0 |
| 20260510144805 | 79 | 234 | 0.9 | 0.9 | 0.00 | 0.00 | 0.00 | 76 | 1013.2 |
| 20260510144302 | 78 | 224 | 0.9 | 1.7 | 0.00 | 0.00 | 0.00 | 76 | 1013.3 |
| 20260510143801 | 79 | 242 | 1.7 | 1.7 | 0.00 | 0.00 | 0.00 | 76 | 1013.1 |
| 20260510143258 | 78 | 245 | 0.9 | 1.7 | 0.00 | 0.00 | 0.00 | 77 | 1012.7 |
| 20260510142754 | 78 | 211 | 0.9 | 0.9 | 0.00 | 0.00 | 0.00 | 78 | 1012.8 |
| 20260510142251 | 77 | 211 | 1.7 | 1.7 | 0.00 | 0.00 | 0.00 | 79 | 1013.0 |
| 20260510141748 | 77 | 225 | 0.9 | 0.9 | 0.00 | 0.00 | 0.00 | 79 | 1012.8 |
| 20260510141246 | 77 | 226 | 0.9 | 1.7 | 0.00 | 0.00 | 0.00 | 79 | 1012.8 |
| 20260510140743 | 77 | 215 | 0.9 | 0.9 | 0.00 | 0.00 | 0.00 | 79 | 1012.9 |
| 20260510140238 | 76 | 216 | 1.7 | 1.7 | 0.00 | 0.00 | 0.00 | 79 | 1012.6 |
| 20260510135732 | 76 | 216 | 1.7 | 1.7 | 0.00 | 0.00 | 0.00 | 80 | 1012.9 |
| 20260510135228 | 76 | 222 | 0.0 | 0.0 | 0.00 | 0.00 | 0.00 | 80 | 1012.7 |
| 20260510134726 | 75 | 221 | 0.9 | 0.9 | 0.00 | 0.00 | 0.00 | 82 | 1012.7 |
| 20260510134223 | 75 | 227 | 0.9 | 1.7 | 0.00 | 0.00 | 0.00 | 83 | 1012.7 |
| 20260510133718 | 73 | 231 | 0.9 | 0.9 | 0.00 | 0.00 | 0.00 | 85 | 1012.5 |
| 20260510133214 | 73 | 228 | 0.0 | 0.0 | 0.00 | 0.00 | 0.00 | 86 | 1012.5 |
| 20260510132710 | 72 | 202 | 0.9 | 0.9 | 0.00 | 0.00 | 0.00 | 87 | 1012.4 |
| 20260510132208 | 71 | 202 | 0.9 | 0.9 | 0.00 | 0.00 | 0.00 | 89 | 1012.0 |
| 20260510131705 | 70 | 204 | 0.9 | 0.9 | 0.00 | 0.00 | 0.00 | 91 | 1012.3 |
| 20260510131204 | 70 | 212 | 0.9 | 0.9 | 0.00 | 0.00 | 0.00 | 93 | 1012.3 |
| 20260510130659 | 69 | 201 | 0.9 | 0.9 | 0.00 | 0.00 | 0.00 | 94 | 1012.1 |
| 20260510130156 | 68 | 202 | 0.0 | 0.0 | 0.00 | 0.00 | 0.00 | 96 | 1011.9 |
| 20260510125653 | 68 | 202 | 0.0 | 0.0 | 0.00 | 0.00 | 0.00 | 97 | 1012.1 |
| 20260510125149 | 67 | 202 | 0.0 | 0.0 | 0.00 | 0.00 | 0.00 | 98 | 1011.9 |
| 20260510124646 | 66 | 202 | 0.0 | 0.0 | 0.00 | 0.00 | 0.00 | 99 | 1012.1 |
| 20260510124143 | 65 | 202 | 0.0 | 0.0 | 0.00 | 0.00 | 0.00 | 99 | 1012.0 |
| 20260510123638 | 65 | 203 | 0.0 | 0.0 | 0.00 | 0.00 | 0.00 | 99 | 1011.8 |
| 20260510123134 | 65 | 203 | 0.0 | 0.0 | 0.00 | 0.00 | 0.00 | 99 | 1011.6 |
| 20260510122631 | 64 | 203 | 0.0 | 0.0 | 0.00 | 0.00 | 0.00 | 99 | 1012.0 |
| 20260510122127 | 64 | 203 | 0.0 | 0.0 | 0.00 | 0.00 | 0.00 | 98 | 1011.8 |
| 20260510121624 | 64 | 203 | 0.0 | 0.0 | 0.00 | 0.00 | 0.00 | 98 | 1011.8 |
| 20260510121121 | 64 | 202 | 0.0 | 0.0 | 0.00 | 0.00 | 0.00 | 98 | 1011.8 |
| 20260510120619 | 64 | 202 | 0.0 | 0.0 | 0.00 | 0.00 | 0.00 | 98 | 1011.4 |
| 20260510120114 | 64 | 202 | 0.0 | 0.0 | 0.00 | 0.00 | 0.00 | 98 | 1011.6 |
| 20260510115611 | 64 | 202 | 0.0 | 0.0 | 0.00 | 0.00 | 0.00 | 98 | 1011.4 |
| 20260510115108 | 64 | 201 | 0.0 | 0.0 | 0.00 | 0.00 | 0.00 | 98 | 1011.5 |
| 20260510114604 | 64 | 201 | 0.0 | 0.0 | 0.00 | 0.00 | 0.00 | 98 | 1011.7 |
| 20260510114100 | 64 | 201 | 0.0 | 0.0 | 0.00 | 0.00 | 0.00 | 98 | 1011.5 |
| 20260510113555 | 64 | 201 | 0.0 | 0.0 | 0.00 | 0.00 | 0.00 | 98 | 1011.5 |
| 20260510113053 | 64 | 201 | 0.0 | 0.0 | 0.00 | 0.00 | 0.00 | 98 | 1011.3 |
| 20260510112549 | 64 | 202 | 0.0 | 0.0 | 0.00 | 0.00 | 0.00 | 98 | 1011.5 |
| 20260510112046 | 64 | 201 | 0.0 | 0.0 | 0.00 | 0.00 | 0.00 | 98 | 1011.3 |
| 20260510111543 | 65 | 204 | 0.0 | 0.9 | 0.00 | 0.00 | 0.00 | 98 | 1011.3 |
| 20260510111039 | 65 | 198 | 0.0 | 0.0 | 0.00 | 0.00 | 0.00 | 98 | 1011.3 |
| 20260510110535 | 65 | 198 | 0.0 | 0.9 | 0.00 | 0.00 | 0.00 | 99 | 1011.1 |
| 20260510110031 | 65 | 200 | 0.9 | 0.9 | 0.00 | 0.00 | 0.00 | 99 | 1011.1 |
| 20260510105526 | 63 | 201 | 0.0 | 0.0 | 0.00 | 0.00 | 0.00 | 99 | 1011.5 |
| 20260510105021 | 63 | 201 | 0.0 | 0.0 | 0.00 | 0.00 | 0.00 | 99 | 1011.4 |
| 20260510104518 | 64 | 201 | 0.0 | 0.0 | 0.00 | 0.00 | 0.00 | 99 | 1011.4 |
| 20260510104015 | 64 | 198 | 0.0 | 0.0 | 0.00 | 0.00 | 0.00 | 99 | 1011.3 |
| 20260510103512 | 64 | 200 | 0.0 | 0.0 | 0.00 | 0.00 | 0.00 | 99 | 1011.5 |
| 20260510103008 | 64 | 200 | 0.0 | 0.0 | 0.00 | 0.00 | 0.00 | 98 | 1011.4 |
| 20260510102504 | 64 | 200 | 0.0 | 0.0 | 0.00 | 0.00 | 0.00 | 98 | 1011.4 |
| 20260510102001 | 64 | 200 | 0.0 | 0.0 | 0.00 | 0.00 | 0.00 | 98 | 1011.2 |
| 20260510101458 | 63 | 202 | 0.0 | 0.0 | 0.00 | 0.00 | 0.00 | 98 | 1011.1 |
| 20260510100956 | 64 | 202 | 0.0 | 0.0 | 0.00 | 0.00 | 0.00 | 98 | 1011.1 |
| 20260510100452 | 63 | 202 | 0.0 | 0.0 | 0.00 | 0.00 | 0.00 | 98 | 1011.1 |
| 20260510095949 | 63 | 202 | 0.0 | 0.0 | 0.00 | 0.00 | 0.00 | 98 | 1011.5 |
| 20260510095445 | 63 | 202 | 0.0 | 0.0 | 0.00 | 0.00 | 0.00 | 98 | 1011.2 |
| 20260510094944 | 63 | 202 | 0.0 | 0.0 | 0.00 | 0.00 | 0.00 | 98 | 1011.4 |
| 20260510094439 | 63 | 201 | 0.0 | 0.0 | 0.00 | 0.00 | 0.00 | 98 | 1011.2 |
| 20260510093935 | 63 | 201 | 0.0 | 0.0 | 0.00 | 0.00 | 0.00 | 98 | 1011.4 |
| 20260510093430 | 63 | 202 | 0.0 | 0.0 | 0.00 | 0.00 | 0.00 | 98 | 1011.4 |
| 20260510092927 | 64 | 202 | 0.0 | 0.0 | 0.00 | 0.00 | 0.00 | 98 | 1011.5 |
| 20260510092425 | 64 | 202 | 0.0 | 0.0 | 0.00 | 0.00 | 0.00 | 98 | 1011.7 |
| 20260510091918 | 64 | 201 | 0.0 | 0.0 | 0.00 | 0.00 | 0.00 | 98 | 1011.3 |
| 20260510091416 | 64 | 201 | 0.0 | 0.0 | 0.00 | 0.00 | 0.00 | 98 | 1011.4 |
| 20260510090912 | 64 | 201 | 0.0 | 0.0 | 0.00 | 0.00 | 0.00 | 98 | 1011.6 |
| 20260510090409 | 64 | 201 | 0.0 | 0.0 | 0.00 | 0.00 | 0.00 | 98 | 1011.4 |
| 20260510085905 | 64 | 202 | 0.0 | 0.0 | 0.00 | 0.00 | 0.00 | 98 | 1011.5 |
| 20260510085400 | 64 | 201 | 0.0 | 0.0 | 0.00 | 0.00 | 0.00 | 98 | 1011.6 |
| 20260510084855 | 64 | 202 | 0.0 | 0.0 | 0.00 | 0.00 | 0.00 | 97 | 1011.5 |
| 20260510084354 | 64 | 202 | 0.0 | 0.0 | 0.00 | 0.00 | 0.00 | 97 | 1011.4 |
| 20260510083850 | 64 | 202 | 0.0 | 0.0 | 0.00 | 0.00 | 0.00 | 97 | 1011.3 |
| 20260510083346 | 65 | 202 | 0.0 | 0.0 | 0.00 | 0.00 | 0.00 | 97 | 1011.6 |
| 20260510082842 | 65 | 201 | 0.0 | 0.0 | 0.00 | 0.00 | 0.00 | 97 | 1011.3 |
| 20260510082339 | 65 | 201 | 0.0 | 0.0 | 0.00 | 0.00 | 0.00 | 97 | 1011.4 |
| 20260510081838 | 65 | 202 | 0.0 | 0.0 | 0.00 | 0.00 | 0.00 | 97 | 1011.4 |
| 20260510081334 | 66 | 201 | 0.0 | 0.0 | 0.00 | 0.00 | 0.00 | 97 | 1011.2 |
| 20260510080831 | 66 | 201 | 0.0 | 0.0 | 0.00 | 0.00 | 0.00 | 97 | 1011.2 |
| 20260510080325 | 66 | 201 | 0.0 | 0.0 | 0.00 | 0.00 | 0.00 | 97 | 1011.4 |
| 20260510075823 | 66 | 201 | 0.0 | 0.0 | 0.00 | 0.00 | 0.00 | 97 | 1011.1 |
| 20260510075320 | 65 | 201 | 0.0 | 0.0 | 0.00 | 0.00 | 0.00 | 97 | 1011.1 |
| 20260510074816 | 66 | 201 | 0.0 | 0.0 | 0.00 | 0.00 | 0.00 | 97 | 1011.4 |
| 20260510074314 | 66 | 201 | 0.0 | 0.0 | 0.00 | 0.00 | 0.00 | 97 | 1011.2 |
| 20260510073810 | 66 | 201 | 0.0 | 0.0 | 0.00 | 0.00 | 0.00 | 97 | 1011.4 |
| 20260510073306 | 66 | 201 | 0.0 | 0.0 | 0.00 | 0.00 | 0.00 | 97 | 1011.4 |
| 20260510072802 | 66 | 201 | 0.0 | 0.0 | 0.00 | 0.00 | 0.00 | 97 | 1011.3 |
| 20260510072259 | 66 | 201 | 0.0 | 0.0 | 0.00 | 0.00 | 0.00 | 96 | 1011.5 |
| 20260510071755 | 66 | 201 | 0.0 | 0.0 | 0.00 | 0.00 | 0.00 | 96 | 1011.1 |
| 20260510071252 | 66 | 201 | 0.0 | 0.0 | 0.00 | 0.00 | 0.00 | 96 | 1011.1 |
| 20260510070750 | 66 | 201 | 0.0 | 0.0 | 0.00 | 0.00 | 0.00 | 96 | 1011.1 |
| 20260510070246 | 66 | 201 | 0.0 | 0.0 | 0.00 | 0.00 | 0.00 | 96 | 1011.1 |
| 20260510065741 | 66 | 201 | 0.0 | 0.0 | 0.00 | 0.00 | 0.00 | 96 | 1011.1 |
| 20260510065238 | 66 | 201 | 0.0 | 0.0 | 0.00 | 0.00 | 0.00 | 96 | 1011.3 |
| 20260510064734 | 66 | 201 | 0.0 | 0.0 | 0.00 | 0.00 | 0.00 | 95 | 1011.3 |
| 20260510064232 | 66 | 201 | 0.0 | 0.0 | 0.00 | 0.00 | 0.00 | 95 | 1011.3 |
| 20260510063728 | 66 | 201 | 0.0 | 0.0 | 0.00 | 0.00 | 0.00 | 95 | 1011.2 |
| 20260510063225 | 67 | 201 | 0.0 | 0.0 | 0.00 | 0.00 | 0.00 | 95 | 1011.2 |
| 20260510062721 | 67 | 201 | 0.0 | 0.0 | 0.00 | 0.00 | 0.00 | 95 | 1011.3 |
| 20260510062217 | 67 | 201 | 0.0 | 0.0 | 0.00 | 0.00 | 0.00 | 95 | 1011.4 |
| 20260510061713 | 67 | 202 | 0.0 | 0.0 | 0.00 | 0.00 | 0.00 | 94 | 1011.5 |
| 20260510061210 | 67 | 201 | 0.0 | 0.0 | 0.00 | 0.00 | 0.00 | 94 | 1011.4 |
| 20260510060706 | 67 | 201 | 0.0 | 0.0 | 0.00 | 0.00 | 0.00 | 94 | 1011.2 |
| 20260510060203 | 67 | 202 | 0.0 | 0.0 | 0.00 | 0.00 | 0.00 | 94 | 1011.5 |
| 20260510055659 | 67 | 201 | 0.0 | 0.9 | 0.00 | 0.00 | 0.00 | 94 | 1011.3 |
| 20260510055157 | 67 | 202 | 0.0 | 0.0 | 0.00 | 0.00 | 0.00 | 94 | 1011.6 |
| 20260510054653 | 67 | 202 | 0.0 | 0.0 | 0.00 | 0.00 | 0.00 | 93 | 1011.3 |
| 20260510054149 | 67 | 202 | 0.0 | 0.0 | 0.00 | 0.00 | 0.00 | 93 | 1011.3 |
| 20260510053648 | 67 | 201 | 0.0 | 0.0 | 0.00 | 0.00 | 0.00 | 93 | 1011.7 |
| 20260510053145 | 67 | 202 | 0.0 | 0.0 | 0.00 | 0.00 | 0.00 | 93 | 1011.3 |
| 20260510052641 | 67 | 202 | 0.0 | 0.0 | 0.00 | 0.00 | 0.00 | 93 | 1011.2 |
| 20260510052137 | 67 | 202 | 0.0 | 0.0 | 0.00 | 0.00 | 0.00 | 92 | 1011.4 |
| 20260510051633 | 67 | 202 | 0.0 | 0.0 | 0.00 | 0.00 | 0.00 | 92 | 1011.3 |
| 20260510051129 | 67 | 202 | 0.0 | 0.0 | 0.00 | 0.00 | 0.00 | 92 | 1011.2 |
| 20260510050627 | 67 | 202 | 0.0 | 0.0 | 0.00 | 0.00 | 0.00 | 91 | 1011.1 |
| 20260510050124 | 68 | 202 | 0.0 | 0.0 | 0.00 | 0.00 | 0.00 | 91 | 1011.1 |
| 20260510045621 | 68 | 202 | 0.0 | 0.0 | 0.00 | 0.01 | 0.01 | 90 | 1011.1 |
| 20260510045117 | 68 | 202 | 0.0 | 0.0 | 0.00 | 0.01 | 0.01 | 90 | 1010.8 |
| 20260510044614 | 69 | 202 | 0.0 | 0.0 | 0.00 | 0.01 | 0.01 | 90 | 1010.8 |
| 20260510044111 | 69 | 202 | 0.0 | 0.0 | 0.00 | 0.01 | 0.01 | 90 | 1010.9 |
| 20260510043606 | 69 | 202 | 0.0 | 0.0 | 0.00 | 0.01 | 0.01 | 89 | 1010.8 |
| 20260510043103 | 69 | 202 | 0.0 | 0.0 | 0.00 | 0.01 | 0.01 | 89 | 1010.9 |
| 20260510042601 | 69 | 202 | 0.0 | 0.0 | 0.00 | 0.01 | 0.01 | 89 | 1010.8 |
| 20260510042057 | 69 | 202 | 0.0 | 0.0 | 0.00 | 0.01 | 0.01 | 88 | 1010.8 |
| 20260510041554 | 69 | 202 | 0.0 | 0.0 | 0.00 | 0.01 | 0.01 | 88 | 1010.6 |
| 20260510041051 | 70 | 202 | 0.0 | 0.0 | 0.00 | 0.01 | 0.01 | 87 | 1010.8 |
| 20260510040548 | 70 | 202 | 0.0 | 0.0 | 0.00 | 0.01 | 0.01 | 87 | 1010.9 |
| 20260510040044 | 70 | 202 | 0.0 | 0.0 | 0.00 | 0.01 | 0.01 | 86 | 1010.7 |
| 20260510035540 | 70 | 202 | 0.0 | 0.0 | 0.00 | 0.01 | 0.01 | 86 | 1010.7 |
| 20260510035040 | 70 | 202 | 0.0 | 0.0 | 0.00 | 0.01 | 0.01 | 86 | 1010.8 |
| 20260510034539 | 71 | 202 | 0.0 | 0.0 | 0.00 | 0.01 | 0.01 | 85 | 1010.7 |
| 20260510034035 | 71 | 202 | 0.0 | 0.0 | 0.00 | 0.01 | 0.01 | 85 | 1010.6 |
| 20260510033531 | 71 | 202 | 0.0 | 0.0 | 0.00 | 0.01 | 0.01 | 84 | 1010.7 |
| 20260510033029 | 72 | 202 | 0.0 | 0.0 | 0.00 | 0.01 | 0.01 | 83 | 1010.3 |
| 20260510032525 | 72 | 202 | 0.0 | 0.0 | 0.00 | 0.01 | 0.01 | 81 | 1010.4 |
| 20260510032020 | 73 | 202 | 0.0 | 0.0 | 0.00 | 0.01 | 0.01 | 80 | 1010.2 |
| 20260510031516 | 73 | 202 | 0.9 | 0.9 | 0.00 | 0.01 | 0.01 | 79 | 1010.3 |
| 20260510031012 | 74 | 202 | 0.9 | 0.9 | 0.00 | 0.01 | 0.01 | 79 | 1010.2 |
| 20260510030508 | 73 | 202 | 0.9 | 0.9 | 0.00 | 0.01 | 0.01 | 79 | 1010.3 |
| 20260510030005 | 73 | 205 | 0.0 | 0.9 | 0.00 | 0.01 | 0.01 | 79 | 1010.1 |
| 20260510025502 | 73 | 205 | 0.0 | 0.0 | 0.00 | 0.01 | 0.01 | 79 | 1010.1 |
| 20260510024959 | 74 | 205 | 0.0 | 0.0 | 0.00 | 0.01 | 0.01 | 78 | 1010.1 |
| 20260510024450 | 74 | 205 | 0.0 | 0.0 | 0.00 | 0.01 | 0.01 | 77 | 1010.1 |
| 20260510023946 | 75 | 205 | 0.0 | 0.0 | 0.00 | 0.01 | 0.01 | 75 | 1009.9 |
| 20260510023443 | 75 | 205 | 0.0 | 0.0 | 0.00 | 0.01 | 0.01 | 74 | 1009.8 |
| 20260510022940 | 75 | 205 | 0.0 | 0.0 | 0.00 | 0.01 | 0.01 | 73 | 1009.8 |
| 20260510022439 | 76 | 205 | 0.0 | 0.0 | 0.00 | 0.01 | 0.01 | 72 | 1009.6 |
| 20260510021938 | 76 | 205 | 0.0 | 0.0 | 0.00 | 0.01 | 0.01 | 71 | 1009.9 |
| 20260510021436 | 77 | 205 | 0.0 | 0.0 | 0.00 | 0.01 | 0.01 | 69 | 1009.8 |
| 20260510020933 | 77 | 205 | 0.0 | 0.0 | 0.00 | 0.01 | 0.01 | 68 | 1009.7 |
| 20260510020427 | 78 | 205 | 0.0 | 0.0 | 0.00 | 0.01 | 0.01 | 66 | 1009.9 |
| 20260510015923 | 78 | 207 | 0.0 | 0.9 | 0.00 | 0.01 | 0.01 | 65 | 1009.8 |
| 20260510015419 | 79 | 205 | 0.9 | 0.9 | 0.00 | 0.01 | 0.01 | 63 | 1009.5 |
| 20260510014914 | 79 | 208 | 0.9 | 0.9 | 0.00 | 0.01 | 0.01 | 62 | 1009.5 |
| 20260510014412 | 80 | 209 | 0.9 | 0.9 | 0.00 | 0.01 | 0.01 | 61 | 1009.5 |
| 20260510013908 | 80 | 218 | 0.9 | 0.9 | 0.00 | 0.01 | 0.01 | 59 | 1009.2 |
| 20260510013403 | 80 | 212 | 0.0 | 0.9 | 0.00 | 0.01 | 0.01 | 58 | 1009.4 |
| 20260510012858 | 80 | 223 | 0.0 | 0.9 | 0.00 | 0.01 | 0.01 | 59 | 1009.2 |
| 20260510012354 | 79 | 240 | 0.0 | 0.9 | 0.00 | 0.01 | 0.01 | 60 | 1009.0 |
| 20260510011849 | 80 | 240 | 0.0 | 0.9 | 0.00 | 0.01 | 0.01 | 60 | 1009.2 |
| 20260510011344 | 80 | 240 | 0.0 | 0.0 | 0.00 | 0.01 | 0.01 | 60 | 1009.0 |
| 20260510010840 | 81 | 240 | 0.0 | 0.0 | 0.00 | 0.01 | 0.01 | 58 | 1008.9 |
| 20260510010338 | 81 | 240 | 0.0 | 0.0 | 0.00 | 0.01 | 0.01 | 57 | 1008.9 |
| 20260510005834 | 82 | 237 | 0.0 | 0.9 | 0.00 | 0.01 | 0.01 | 56 | 1008.7 |
| 20260510005331 | 82 | 236 | 1.7 | 1.7 | 0.00 | 0.01 | 0.01 | 54 | 1008.8 |
| 20260510004829 | 82 | 245 | 0.9 | 0.9 | 0.00 | 0.01 | 0.01 | 55 | 1008.7 |
| 20260510004326 | 83 | 230 | 0.0 | 0.0 | 0.00 | 0.01 | 0.01 | 59 | 1008.7 |
| 20260510003823 | 84 | 244 | 0.9 | 1.7 | 0.00 | 0.01 | 0.01 | 60 | 1008.5 |
| 20260510003320 | 85 | 235 | 0.9 | 0.9 | 0.00 | 0.01 | 0.01 | 60 | 1008.5 |
| 20260510002819 | 85 | 231 | 0.9 | 0.9 | 0.00 | 0.01 | 0.01 | 59 | 1008.5 |
| 20260510002316 | 86 | 244 | 0.9 | 1.7 | 0.00 | 0.01 | 0.01 | 58 | 1008.3 |
| 20260510001813 | 86 | 240 | 0.9 | 1.7 | 0.00 | 0.01 | 0.01 | 58 | 1008.3 |
| 20260510001311 | 86 | 233 | 0.9 | 0.9 | 0.00 | 0.01 | 0.01 | 58 | 1008.4 |
| 20260510000806 | 86 | 220 | 0.9 | 0.9 | 0.00 | 0.01 | 0.01 | 59 | 1008.0 |
| 20260510000305 | 85 | 239 | 0.9 | 1.7 | 0.00 | 0.01 | 0.01 | 60 | 1008.0 |
| 20260509235802 | 85 | 233 | 0.9 | 0.9 | 0.00 | 0.01 | 0.01 | 60 | 1008.0 |
| 20260509235258 | 85 | 238 | 0.0 | 0.9 | 0.00 | 0.01 | 0.01 | 59 | 1008.2 |
| 20260509234754 | 85 | 236 | 1.7 | 2.6 | 0.00 | 0.01 | 0.01 | 59 | 1008.0 |
| 20260509234250 | 85 | 244 | 0.9 | 0.9 | 0.00 | 0.01 | 0.01 | 59 | 1008.2 |
| 20260509233749 | 85 | 256 | 2.6 | 4.3 | 0.00 | 0.01 | 0.01 | 59 | 1008.0 |
| 20260509233246 | 85 | 238 | 0.9 | 0.9 | 0.00 | 0.01 | 0.01 | 61 | 1008.0 |
| 20260509232742 | 86 | 284 | 0.9 | 1.7 | 0.00 | 0.01 | 0.01 | 60 | 1008.0 |
| 20260509232240 | 86 | 249 | 1.7 | 1.7 | 0.00 | 0.01 | 0.01 | 60 | 1007.9 |
| 20260509231736 | 87 | 277 | 0.9 | 1.7 | 0.00 | 0.01 | 0.01 | 58 | 1008.2 |
| 20260509231233 | 86 | 214 | 0.9 | 1.7 | 0.00 | 0.01 | 0.01 | 59 | 1007.9 |
| 20260509230730 | 85 | 229 | 0.9 | 1.7 | 0.00 | 0.01 | 0.01 | 60 | 1008.0 |
| 20260509230227 | 85 | 228 | 0.0 | 0.9 | 0.00 | 0.01 | 0.01 | 61 | 1007.9 |
| 20260509225722 | 86 | 254 | 1.7 | 2.6 | 0.00 | 0.01 | 0.01 | 60 | 1008.0 |
| 20260509225218 | 85 | 223 | 0.9 | 0.9 | 0.00 | 0.01 | 0.01 | 60 | 1007.9 |